Location: Albuquerque Trailhead
(34.7934°N, 106.3736°W)
Time: 00:01:40
(UTC+00:00)

Meteor 2-5 Rocket - Pass Details

Date: 20 June 2021
Orbit: 833 x 911 km, 81.2° (Epoch: 01 August)

Event Time Altitude Azimuth Distance (km) Brightness Sun altitude
Exits shadow 04:56:35 51° 191° (S) 1,037 3.8 -24.1°
Maximum altitude 04:58:03 87° 277° (W) 843 3.6 -24.2°
Drops below altitude 10° 05:03:39 10° 8° (N) 2,472 6.8 -24.8°
Sets 05:06:05 0° 8° (N) 3,420 7.6 -25.1°
